KN4QQN Weather Reports


time (UTC)temp
C
wind
direction
speed
KPH
gust
KPH
rain 1hr
cm
rain 24hr
cm
rain mn
cm
humidity
%
barometer
mb
20260505122022 16 148 1.6 6.4 0.00 0.00 0.00 69
20260505121022 15 152 1.6 3.2 0.00 0.00 0.00 70
20260505120042 15 132 1.6 4.8 0.00 0.00 0.00 71
20260505115022 15 151 1.6 6.4 0.00 0.00 0.00 72
20260505114022 14 158 1.6 6.4 0.00 0.00 0.00 72
20260505113022 14 167 0.0 3.2 0.00 0.00 0.00 73
20260505112022 13 176 0.0 1.6 0.00 0.00 0.00 74
20260505111042 13 159 0.0 3.2 0.00 0.00 0.00 75
20260505102022 12 145 0.0 1.6 0.00 0.00 0.00 75
20260505101022 13 118 0.0 1.6 0.00 0.00 0.00 74
20260505100042 13 151 0.0 3.2 0.00 0.00 0.00 74
20260505095042 13 155 0.0 1.6 0.00 0.00 0.00 73
20260505094022 13 170 0.0 3.2 0.00 0.00 0.00 73
20260505093022 13 133 0.0 1.6 0.00 0.00 0.00 72
20260505092022 13 141 0.0 1.6 0.00 0.00 0.00 71
20260505091023 13 138 0.0 3.2 0.00 0.00 0.00 71
20260505090022 13 0.0 1.6 0.00 0.00 0.00 70
20260505085022 13 108 0.0 4.8 0.00 0.00 0.00 69
20260505084022 14 0.0 0.0 0.00 0.00 0.00 69
20260505083022 14 111 0.0 1.6 0.00 0.00 0.00 68
20260505082023 14 124 1.6 3.2 0.00 0.00 0.00 68
20260505081022 14 99 1.6 3.2 0.00 0.00 0.00 68
20260505080022 15 170 1.6 6.4 0.00 0.00 0.00 67
20260505075022 15 106 1.6 4.8 0.00 0.00 0.00 68
20260505074022 15 115 0.0 3.2 0.00 0.00 0.00 67
20260505073022 15 148 0.0 1.6 0.00 0.00 0.00 66
20260505072022 15 136 1.6 4.8 0.00 0.00 0.00 66
20260505071022 15 172 1.6 4.8 0.00 0.00 0.00 65
20260505070022 15 152 3.2 4.8 0.00 0.00 0.00 65
20260505065022 16 168 1.6 3.2 0.00 0.00 0.00 65
20260505064042 16 118 3.2 8.0 0.00 0.00 0.00 65
20260505063022 16 140 1.6 3.2 0.00 0.00 0.00 65
20260505062022 16 161 1.6 3.2 0.00 0.00 0.00 64
20260505061022 16 194 1.6 3.2 0.00 0.00 0.00 64
20260505060022 16 115 1.6 4.8 0.00 0.00 0.00 63
20260505055023 16 110 3.2 6.4 0.00 0.00 0.00 63
20260505054022 16 175 3.2 6.4 0.00 0.00 0.00 63
20260505053022 16 140 1.6 3.2 0.00 0.00 0.00 63
20260505052023 16 170 3.2 4.8 0.00 0.00 0.00 63
20260505051022 16 154 1.6 3.2 0.00 0.00 0.00 62
20260505041043 17 187 3.2 6.4 0.00 0.00 0.00 59
20260505040023 18 163 3.2 4.8 0.00 0.00 0.00 58
20260505035022 18 147 3.2 6.4 0.00 0.00 0.00 58
20260505033022 18 132 3.2 6.4 0.00 0.00 0.00 57
20260505032023 18 133 3.2 6.4 0.00 0.00 0.00 56
20260505031023 18 174 3.2 6.4 0.00 0.00 0.00 56
20260505030022 19 189 3.2 14.5 0.00 0.00 0.00 55
20260505025043 19 154 3.2 6.4 0.00 0.00 0.00 54
20260505024022 19 122 3.2 6.4 0.00 0.00 0.00 52
20260505023023 20 201 3.2 6.4 0.00 0.00 0.00 49
20260505022023 20 119 3.2 4.8 0.00 0.00 0.00 44
20260505021023 20 164 1.6 4.8 0.00 0.00 0.00 41
20260505020023 20 187 3.2 6.4 0.00 0.00 0.00 41
20260505015023 20 166 3.2 8.0 0.00 0.00 0.00 40
20260505014023 20 96 3.2 4.8 0.00 0.00 0.00 40
20260505013023 20 165 3.2 6.4 0.00 0.00 0.00 40
20260505012023 21 176 1.6 3.2 0.00 0.00 0.00 40
20260505011023 21 175 1.6 3.2 0.00 0.00 0.00 39
20260505010023 21 190 1.6 4.8 0.00 0.00 0.00 39
20260505005023 21 142 0.0 3.2 0.00 0.00 0.00 37
20260505004023 22 163 1.6 3.2 0.00 0.00 0.00 36
20260505003023 22 128 1.6 3.2 0.00 0.00 0.00 36
20260505002023 22 100 1.6 4.8 0.00 0.00 0.00 35
20260505001023 22 171 1.6 6.4 0.00 0.00 0.00 33
20260505000043 23 146 1.6 4.8 0.00 0.00 0.00 32
20260504235123 23 152 1.6 3.2 0.00 0.00 0.00 31
20260504234023 24 170 0.0 3.2 0.00 0.00 0.00 30
20260504233023 25 168 1.6 3.2 0.00 0.00 0.00 29
20260504232023 25 179 3.2 9.7 0.00 0.00 0.00 28
20260504231023 25 216 0.0 3.2 0.00 0.00 0.00 29
20260504230023 26 148 3.2 9.7 0.00 0.00 0.00 28
20260504225023 26 118 3.2 9.7 0.00 0.00 0.00 27
20260504224023 26 185 3.2 6.4 0.00 0.00 0.00 27
20260504223023 27 211 3.2 4.8 0.00 0.00 0.00 28
20260504222043 26 216 3.2 6.4 0.00 0.00 0.00 28
20260504221043 27 251 4.8 9.7 0.00 0.00 0.00 27
20260504220043 27 314 3.2 8.0 0.00 0.00 0.00 28
20260504215103 27 140 4.8 8.0 0.00 0.00 0.00 28
20260504214023 27 202 3.2 6.4 0.00 0.00 0.00 28
20260504213023 27 231 3.2 6.4 0.00 0.00 0.00 28
20260504212023 27 184 3.2 9.7 0.00 0.00 0.00 28
20260504211023 27 146 3.2 14.5 0.00 0.00 0.00 28
20260504210023 27 176 3.2 6.4 0.00 0.00 0.00 29
20260504205023 27 134 3.2 3.2 0.00 0.00 0.00 28
20260504204023 27 105 3.2 8.0 0.00 0.00 0.00 28
20260504203023 27 154 3.2 6.4 0.00 0.00 0.00 28
20260504202023 27 189 4.8 9.7 0.00 0.00 0.00 27
20260504201023 27 340 3.2 8.0 0.00 0.00 0.00 28
20260504200023 27 215 3.2 6.4 0.00 0.00 0.00 29
20260504195023 27 101 3.2 6.4 0.00 0.00 0.00 29
20260504194023 27 159 4.8 11.3 0.00 0.00 0.00 29
20260504193024 26 182 4.8 11.3 0.00 0.00 0.00 29
20260504192023 27 48 4.8 9.7 0.00 0.00 0.00 28
20260504191023 27 215 4.8 11.3 0.00 0.00 0.00 29
20260504190024 26 246 4.8 9.7 0.00 0.00 0.00 29
20260504185023 26 159 3.2 4.8 0.00 0.00 0.00 30
20260504184023 26 199 3.2 6.4 0.00 0.00 0.00 32
20260504183023 26 172 3.2 6.4 0.00 0.00 0.00 30
20260504182023 26 252 4.8 6.4 0.00 0.00 0.00 30
20260504181023 25 210 4.8 9.7 0.00 0.00 0.00 31
20260504180043 26 148 3.2 8.0 0.00 0.00 0.00 32
20260504175024 24 304 3.2 9.7 0.00 0.00 0.00 33
20260504174023 25 234 3.2 8.0 0.00 0.00 0.00 33
20260504173124 25 146 3.2 6.4 0.00 0.00 0.00 34
20260504172023 25 258 3.2 8.0 0.00 0.00 0.00 35
20260504171023 25 210 3.2 6.4 0.00 0.00 0.00 35
20260504151023 21 178 1.6 6.4 0.00 0.00 0.00 48
20260504141043 17 168 1.6 3.2 0.00 0.00 0.00 56